Showing default

BRO-13, 59107

Orbit data source: Space-Track

BRO-13, 59107 is a payload satellite owned by Unseen Labs (FR) in SSO that was launched on Mon, 04 Mar 2024 UTC via an FALCON 9 launch vehicle from the Air Force Western Test Range (AFWTR). Payload-class satellites include a variety of spacecraft equipped with specific instruments for various scientific and technological missions. These include communications satellites like Starlink; space stations such as the ISS; scientific satellites like the Hubble; Earth observation satellites from companies like Planet Labs, Umbra, and HawkEye 360; GPS; miniature CubeSats for education and research; and military/defense satellites.

Loading next visibility...
Identifier
59107, 2024-043K
Orbit
SSO
Country
Flag of FRFR
Related business
Manufacturer
GOMSpace
Mission
Operational Commercial Sigint
Bus & Motor
CUBESAT 8U, Unknown motor
Mass
15 kg wet, ~15 kg dry
Launch date (UTC)
2024-03-04 (2 years ago)
Launch vehicle
FALCON 9
Launch site
Air Force Western Test Range (AFWTR)
Object type
Payload
Rocket body
Debris
Shape & HBR
Box, 0.2 m
Radar Cross Section
0.100 m², Medium (>0.1 m² and < 1m²)

Expand to show TLE details & history
Last TLE update: 11 hours ago

TLE from 11 hours ago
0 BRO-13
1 59107U 24043K   25298.48341854  .00002787  00000-0  25609-3 0  9997
2 59107  97.8227  64.3563 0010027  64.8386 295.3874 14.95607936 89523
Epoch: 2025-10-25T11:36Z
TLE epoch observation values (Epoch: 2025-10-25T11:36:07.361Z)
Latitude
-0°
Longitude
-143.78769°
Altitude
580.545 km
Speed
7.572 km/s
True Right ascension
04h 17m 25s
True Declination
0° 00' 00"
Sunlit
Object was in full shadow at epoch
Visualization orbit readout
Latitude
Unknown
Longitude
Unknown
Altitude
Unknown
Speed
Unknown
Apparent Right ascension
Unknown
Apparent Declination
Unknown
Sunlit
N/A
Visualization observer readout
Local Sidereal Time
18:00:34
Azimuth
Unknown
Elevation
Unknown
Doppler factor
Unknown
Orbital elements
Apogee altitude
584.477 km
Perigee altitude
570.529 km
Semi-major axis
6,955.64 km
Eccentricity
0.001
Inclination
97.8227°
RAAN
64.3563°
Arg. of periapsis
64.8386°
True anomaly
295.28354°
Mean anomaly
295.3874°
Eccentric anomaly
295.33548°
Mean motion
3.74143 °/min
Orbital period
96.22 mins
BSTAR
0.00025609
Loading maneuver chart data...
Computing Atmospheric mass density...
Loading historical data...
Loading historical data...
Loading historical data...
Loading historical data...
Loading historical data...
Loading historical data...
Loading historical data...

Documentation

Showing up to 5 results
|